Regional Weather Roundup
Issued by NWS

Home | Current Version | Previous Version | Text Only | Print | Product List | Glossary On
Versions: 1 2 3 4 5 6 7 8 9 10 11 12 13 14 15 16 17 18 19 20 21 22 23 24 25 26 27 28 29 30 31 32 33 34 35 36 37 38 39 40 41 42 43 44 45 46 47 48 49 50
000
ASUS45 KBOI 191210
RWRID

IDAHO REGIONAL WEATHER ROUNDUP
NATIONAL WEATHER SERVICE BOISE ID
600 AM MDT THU APR 19 2018

NOTE: "FAIR" INDICATES FEW OR NO CLOUDS BELOW 12000 FEET
WITH NO SIGNIFICANT WEATHER AND/OR OBSTRUCTIONS TO VISIBILITY

IDZ012-014-191300-
SOUTHWEST IDAHO


CITY           SKY/WX    TMP DP  RH WIND       PRES   REMARKS
BOISE          CLOUDY    43  35  73 S3        29.92R
CALDWELL       CLOUDY    44  35  70 W10       29.93S
MOUNTAIN HOME  CLOUDY    40  37  87 NW6       29.91S
$$

IDZ016-017-191300-
SOUTHCENTRAL IDAHO


CITY           SKY/WX    TMP DP  RH WIND       PRES   REMARKS
BURLEY         CLOUDY    41  23  48 E12       29.90S
JEROME         CLOUDY    45  20  36 NE18      29.89S
TWIN FALLS     CLOUDY    42  25  50 E10       29.89S
$$

IDZ019>023-191300-
SOUTHEAST IDAHO


CITY           SKY/WX    TMP DP  RH WIND       PRES   REMARKS
IDAHO FALLS    CLOUDY    35  27  72 N9        29.97F WCI  28
POCATELLO      CLOUDY    36  28  73 E5        29.94F WCI  32
REXBURG        CLOUDY    37  24  59 CALM      29.98F
$$

IDZ006-010-011-018-031-032-191300-
CENTRAL IDAHO MOUNTAINS


CITY           SKY/WX    TMP DP  RH WIND       PRES   REMARKS
MCCALL         MOCLDY    31  23  72 NW6       29.96S WCI  25
HAILEY         CLOUDY    41  23  48 NW10      29.97S
STANLEY          N/A     26  19  74 CALM      30.01S
SALMON         MOCLDY    34  27  75 CALM      30.06S
CHALLIS        NOT AVBL
$$

IDZ002-004-006-007-026-191300-
NORTHERN IDAHO


CITY           SKY/WX    TMP DP  RH WIND       PRES   REMARKS
LEWISTON       MOCLDY    41  33  73 S6        30.07S
LOWELL           N/A     39  37  92 NW6       30.10S WCI  35
COEUR D`ALENE  CLEAR     32  29  88 NE9       30.12S WCI  24
MULLAN PASS    CLEAR     30  17  58 SE7       30.06S WCI  23
$$



USA.gov is the U.S. government's official web portal to all federal, state and local government web resources and services.